Location: Sebastopol
(38.4021°N, 122.8239°W)
Time: 15:09:11
(UTC+00:00)

Okean 1-7 Rocket - Pass Details

Date: 29 October 2020
Orbit: 615 x 650 km, 82.5° (Epoch: 30 November)

Event Time Altitude Azimuth Distance (km) Brightness Sun altitude
Rises 13:50:43 0° 212° (SSW) 2,951 6.8 -9.3°
Reaches altitude 10° 13:53:13 10° 224° (SW) 2,042 5.9 -8.8°
Maximum altitude 13:57:08 28° 284° (WNW) 1,209 4.5 -8.1°
Drops below altitude 10° 14:01:02 10° 343° (NNW) 2,040 5.9 -7.3°
Sets 14:03:33 0° 356° (N) 2,947 6.9 -6.8°
